When you browse on this site, cookies collect data to enhance your experience and personalize the content and advertising you see.
Visit our Privacy Policy to learn more. By continuing to use the site, you agree to this use of cookies and data.
  • In Hungary
  • List of Countries
  • For 7 days
  • Water Temperature
  • Satellite Maps
  • Weather Map
  • News
  • Weather Widgets
  • user-avatar
    Login

    Hourly Weather Sofievka

    Today, 18 April, Thursday

    Time Temperature Precipitation Wind Pressure Humidity
    00:00 +5°C° 0 mm 4 mps 759 mmHg 81%
    01:00 +4°C° 0 mm 4 mps 759 mmHg 81%
    02:00 +4°C° 0 mm 3 mps 759 mmHg 84%
    03:00 +3°C° 0 mm 3 mps 759 mmHg 83%
    04:00 +3°C° 0 mm 3 mps 760 mmHg 83%
    05:00 +2°C° 0 mm 3 mps 760 mmHg 83%
    06:00 +3°C° 0 mm 4 mps 760 mmHg 72%
    07:00 +5°C° 0 mm 5 mps 760 mmHg 62%
    08:00 +5°C° 0 mm 6 mps 760 mmHg 51%
    09:00 +7°C° 0 mm 6 mps 760 mmHg 48%
    10:00 +7°C° 0 mm 6 mps 760 mmHg 44%
    11:00 +8°C° 0 mm 6 mps 760 mmHg 40%
    12:00 +9°C° 0 mm 6 mps 760 mmHg 39%
    13:00 +10°C° 0 mm 5 mps 760 mmHg 38%
    14:00 +10°C° 0 mm 5 mps 759 mmHg 36%
    15:00 +10°C° 0 mm 5 mps 759 mmHg 37%
    16:00 +11°C° 0 mm 4 mps 759 mmHg 38%
    17:00 +11°C° 0 mm 4 mps 759 mmHg 38%
    18:00 +10°C° 0 mm 3 mps 759 mmHg 42%
    19:00 +8°C° 0 mm 3 mps 759 mmHg 46%
    20:00 +7°C° 0 mm 2 mps 759 mmHg 50%
    21:00 +7°C° 0 mm 2 mps 759 mmHg 51%
    22:00 +7°C° 0 mm 2 mps 759 mmHg 51%
    23:00 +7°C° 0 mm 2 mps 759 mmHg 52%

    Tomorrow, 19 April, Friday

    Time Temperature Precipitation Wind Pressure Humidity
    00:00 +6°C° 0 mm 2 mps 759 mmHg 53%
    01:00 +6°C° 0 mm 2 mps 758 mmHg 54%
    02:00 +5°C° 0 mm 2 mps 758 mmHg 54%
    03:00 +5°C° 0 mm 2 mps 758 mmHg 56%
    04:00 +4°C° 0 mm 2 mps 758 mmHg 58%
    05:00 +4°C° 0 mm 2 mps 758 mmHg 59%
    06:00 +4°C° 0 mm 3 mps 758 mmHg 55%
    07:00 +7°C° 0 mm 3 mps 759 mmHg 50%
    08:00 +7°C° 0 mm 4 mps 759 mmHg 46%
    09:00 +8°C° 0 mm 5 mps 759 mmHg 44%
    10:00 +9°C° 0 mm 5 mps 759 mmHg 41%
    11:00 +10°C° 0 mm 6 mps 759 mmHg 39%
    12:00 +10°C° 0 mm 6 mps 759 mmHg 38%
    13:00 +10°C° 0 mm 6 mps 759 mmHg 37%
    14:00 +10°C° 0 mm 6 mps 759 mmHg 37%
    15:00 +10°C° 0 mm 5 mps 759 mmHg 38%
    16:00 +10°C° 0 mm 5 mps 759 mmHg 39%
    17:00 +10°C° 0 mm 5 mps 759 mmHg 39%
    18:00 +9°C° 0 mm 5 mps 759 mmHg 43%
    19:00 +8°C° 0 mm 4 mps 760 mmHg 46%
    20:00 +8°C° 0 mm 3 mps 760 mmHg 49%
    21:00 +7°C° 0 mm 3 mps 760 mmHg 51%
    22:00 +7°C° 0 mm 3 mps 760 mmHg 53%
    23:00 +5°C° 0 mm 3 mps 760 mmHg 55%

    Day after tomorrow, 20 April, Saturday

    Time Temperature Precipitation Wind Pressure Humidity
    00:00 +5°C° 0 mm 3 mps 760 mmHg 56%
    01:00 +4°C° 0 mm 3 mps 760 mmHg 58%
    02:00 +4°C° 0 mm 3 mps 760 mmHg 60%
    03:00 +3°C° 0 mm 3 mps 760 mmHg 61%
    04:00 +3°C° 0 mm 3 mps 760 mmHg 63%
    05:00 +2°C° 0 mm 3 mps 760 mmHg 65%
    06:00 +4°C° 0 mm 4 mps 760 mmHg 58%
    07:00 +6°C° 0 mm 4 mps 760 mmHg 52%
    08:00 +8°C° 0 mm 5 mps 761 mmHg 45%
    09:00 +9°C° 0 mm 5 mps 760 mmHg 42%
    10:00 +10°C° 0 mm 5 mps 760 mmHg 39%
    11:00 +12°C° 0 mm 5 mps 760 mmHg 36%
    12:00 +12°C° 0 mm 5 mps 760 mmHg 35%
    13:00 +12°C° 0 mm 4 mps 760 mmHg 34%
    14:00 +13°C° 0 mm 4 mps 759 mmHg 33%
    15:00 +13°C° 0 mm 4 mps 759 mmHg 34%
    16:00 +12°C° 0 mm 4 mps 759 mmHg 35%
    17:00 +12°C° 0 mm 3 mps 759 mmHg 36%
    18:00 +11°C° 0 mm 3 mps 759 mmHg 40%
    19:00 +10°C° 0 mm 2 mps 759 mmHg 44%
    20:00 +9°C° 0 mm 2 mps 760 mmHg 48%
    21:00 +8°C° 0 mm 2 mps 760 mmHg 49%
    22:00 +8°C° 0 mm 2 mps 760 mmHg 51%
    23:00 +7°C° 0 mm 2 mps 760 mmHg 52%

    21 April, Sunday

    Time Temperature Precipitation Wind Pressure Humidity
    00:00 +7°C° 0 mm 2 mps 759 mmHg 53%
    01:00 +6°C° 0 mm 2 mps 759 mmHg 54%
    02:00 +6°C° 0 mm 2 mps 759 mmHg 55%
    03:00 +5°C° 0 mm 2 mps 759 mmHg 57%
    04:00 +5°C° 0 mm 2 mps 759 mmHg 58%
    05:00 +5°C° 0 mm 2 mps 759 mmHg 60%
    06:00 +6°C° 0 mm 2 mps 760 mmHg 56%
    07:00 +8°C° 0 mm 2 mps 760 mmHg 52%
    08:00 +10°C° 0 mm 2 mps 760 mmHg 48%
    09:00 +11°C° 0 mm 3 mps 760 mmHg 44%
    10:00 +12°C° 0 mm 3 mps 760 mmHg 40%
    11:00 +13°C° 0 mm 3 mps 760 mmHg 36%
    12:00 +13°C° 0 mm 3 mps 760 mmHg 36%
    13:00 +13°C° 0 mm 3 mps 759 mmHg 35%
    14:00 +14°C° 0 mm 2 mps 759 mmHg 35%
    15:00 +13°C° 0 mm 3 mps 759 mmHg 36%
    16:00 +13°C° 0 mm 3 mps 759 mmHg 38%
    17:00 +13°C° 0 mm 3 mps 759 mmHg 39%
    18:00 +13°C° 0 mm 2 mps 759 mmHg 42%
    19:00 +12°C° 0 mm 2 mps 760 mmHg 44%
    20:00 +10°C° 0 mm 2 mps 760 mmHg 46%
    21:00 +10°C° 0 mm 2 mps 760 mmHg 48%
    22:00 +10°C° 0 mm 2 mps 760 mmHg 49%
    23:00 +9°C° 0 mm 3 mps 760 mmHg 51%

    22 April, Monday

    Time Temperature Precipitation Wind Pressure Humidity
    00:00 +9°C° 0 mm 3 mps 760 mmHg 52%
    01:00 +9°C° 0 mm 3 mps 760 mmHg 54%
    02:00 +9°C° 0 mm 2 mps 760 mmHg 56%
    03:00 +8°C° 0 mm 3 mps 760 mmHg 56%
    04:00 +8°C° 0 mm 3 mps 761 mmHg 57%
    05:00 +8°C° 0 mm 3 mps 761 mmHg 58%
    06:00 +9°C° 0 mm 3 mps 761 mmHg 53%
    07:00 +11°C° 0 mm 4 mps 761 mmHg 49%
    08:00 +12°C° 0 mm 5 mps 762 mmHg 44%
    09:00 +13°C° 0 mm 5 mps 762 mmHg 42%
    10:00 +14°C° 0 mm 5 mps 762 mmHg 39%
    11:00 +14°C° 0 mm 5 mps 762 mmHg 37%
    12:00 +14°C° 0 mm 5 mps 762 mmHg 37%
    13:00 +14°C° 0 mm 4 mps 761 mmHg 37%
    14:00 +14°C° 0 mm 4 mps 761 mmHg 37%
    15:00 +14°C° 0 mm 4 mps 761 mmHg 38%
    16:00 +14°C° 0 mm 4 mps 761 mmHg 40%
    17:00 +14°C° 0 mm 4 mps 761 mmHg 41%
    18:00 +13°C° 0 mm 3 mps 762 mmHg 44%
    19:00 +12°C° 0 mm 3 mps 762 mmHg 47%
    20:00 +12°C° 0 mm 3 mps 762 mmHg 50%
    21:00 +11°C° 0 mm 3 mps 763 mmHg 51%
    22:00 +11°C° 0 mm 3 mps 763 mmHg 52%
    23:00 +11°C° 0 mm 3 mps 763 mmHg 53%

    23 April, Tuesday

    Time Temperature Precipitation Wind Pressure Humidity
    00:00 +10°C° 0 mm 3 mps 763 mmHg 53%
    01:00 +10°C° 0 mm 3 mps 763 mmHg 53%
    02:00 +10°C° 0 mm 3 mps 763 mmHg 54%
    03:00 +10°C° 0 mm 3 mps 764 mmHg 54%
    04:00 +10°C° 0 mm 3 mps 764 mmHg 54%
    05:00 +9°C° 0 mm 3 mps 764 mmHg 54%
    06:00 +10°C° 0 mm 3 mps 764 mmHg 50%
    07:00 +12°C° 0 mm 4 mps 765 mmHg 46%
    08:00 +13°C° 0 mm 4 mps 765 mmHg 41%
    09:00 +13°C° 0 mm 4 mps 765 mmHg 40%
    10:00 +14°C° 0 mm 4 mps 765 mmHg 39%
    11:00 +14°C° 0 mm 4 mps 765 mmHg 39%
    12:00 +14°C° 0 mm 4 mps 765 mmHg 39%
    13:00 +14°C° 0 mm 3 mps 765 mmHg 39%
    14:00 +14°C° 0 mm 3 mps 764 mmHg 40%
    15:00 +14°C° 0 mm 3 mps 764 mmHg 41%
    16:00 +14°C° 0 mm 3 mps 764 mmHg 43%
    17:00 +14°C° 0 mm 3 mps 764 mmHg 44%
    18:00 +12°C° 0 mm 3 mps 764 mmHg 48%
    19:00 +12°C° 0 mm 2 mps 764 mmHg 51%
    20:00 +10°C° 0 mm 2 mps 764 mmHg 55%
    21:00 +10°C° 0 mm 2 mps 764 mmHg 57%
    22:00 +9°C° 0 mm 2 mps 764 mmHg 59%
    23:00 +8°C° 0 mm 2 mps 764 mmHg 61%
    Show more